Location: Dentlein
(49.1477°N, 10.4231°E)
Time: 01:32:50
(UTC+00:00)

Cosmos 1455 - Pass Details

Date: 23 May 2024
Orbit: 445 x 461 km, 82.5° (Epoch: 13 June)

Event Time Altitude Azimuth Distance (km) Brightness Sun altitude
Rises 02:00:55 0° 330° (NNW) 2,460 5.9 -11.1°
Maximum altitude 02:05:24 12° 275° (W) 1,477 4.2 -10.6°
Enters shadow 02:06:26 11° 257° (WSW) 1,545 4.1 -10.5°
